TimeCST,TemperatureF,Dew PointF,Humidity,Sea Level PressureIn,VisibilityMPH,Wind Direction,Wind SpeedMPH,Gust SpeedMPH,PrecipitationIn,Events,Conditions,WindDirDegrees,DateUTC
12:53 AM,21.9,16.0,78,30.25,10.0,SSW,3.5,-,N/A,,Clear,210,2012-12-12 06:53:00
1:53 AM,19.9,15.1,81,30.25,10.0,Calm,Calm,-,N/A,,Clear,0,2012-12-12 07:53:00
2:53 AM,19.9,15.1,81,30.25,10.0,Calm,Calm,-,N/A,,Clear,0,2012-12-12 08:53:00
3:53 AM,19.9,15.1,81,30.25,10.0,Calm,Calm,-,N/A,,Clear,0,2012-12-12 09:53:00
4:53 AM,18.0,14.0,84,30.27,10.0,Calm,Calm,-,N/A,,Clear,0,2012-12-12 10:53:00
5:53 AM,18.0,14.0,84,30.29,10.0,Calm,Calm,-,N/A,,Clear,0,2012-12-12 11:53:00
6:53 AM,17.1,14.0,88,30.31,10.0,Calm,Calm,-,N/A,,Clear,0,2012-12-12 12:53:00
7:53 AM,18.0,15.1,88,30.33,10.0,Calm,Calm,-,N/A,,Clear,0,2012-12-12 13:53:00
8:53 AM,24.1,19.0,81,30.35,10.0,Calm,Calm,-,N/A,,Clear,0,2012-12-12 14:53:00
9:53 AM,34.0,24.1,67,30.33,10.0,Calm,Calm,-,N/A,,Clear,0,2012-12-12 15:53:00
10:53 AM,46.0,17.1,31,30.32,10.0,South,10.4,-,N/A,,Clear,190,2012-12-12 16:53:00
11:53 AM,48.0,14.0,26,30.30,10.0,South,13.8,18.4,N/A,,Clear,190,2012-12-12 17:53:00
12:53 PM,48.9,12.9,24,30.27,10.0,South,13.8,-,N/A,,Clear,190,2012-12-12 18:53:00
1:53 PM,50.0,10.0,20,30.25,10.0,South,17.3,-,N/A,,Clear,170,2012-12-12 19:53:00
2:53 PM,48.9,12.0,23,30.25,10.0,South,11.5,-,N/A,,Clear,180,2012-12-12 20:53:00
3:53 PM,48.0,12.0,24,30.26,10.0,South,10.4,-,N/A,,Clear,180,2012-12-12 21:53:00
4:53 PM,45.0,12.9,27,30.25,10.0,SSE,4.6,-,N/A,,Clear,150,2012-12-12 22:53:00
5:53 PM,34.0,18.0,52,30.26,10.0,East,3.5,-,N/A,,Clear,80,2012-12-12 23:53:00
6:53 PM,28.9,18.0,64,30.26,10.0,Calm,Calm,-,N/A,,Clear,0,2012-12-13 00:53:00
7:53 PM,26.1,18.0,71,30.27,10.0,Calm,Calm,-,N/A,,Clear,0,2012-12-13 01:53:00
8:53 PM,27.0,17.1,66,30.27,10.0,Calm,Calm,-,N/A,,Clear,0,2012-12-13 02:53:00
9:53 PM,42.1,16.0,35,30.25,10.0,SSE,10.4,16.1,N/A,,Clear,160,2012-12-13 03:53:00
10:53 PM,37.9,16.0,41,30.25,10.0,South,8.1,-,N/A,,Clear,180,2012-12-13 04:53:00
11:53 PM,37.9,16.0,41,30.25,10.0,South,9.2,-,N/A,,Clear,170,2012-12-13 05:53:00